TimeEDT,TemperatureF,Dew PointF,Humidity,Sea Level PressureIn,VisibilityMPH,Wind Direction,Wind SpeedMPH,Gust SpeedMPH,PrecipitationIn,Events,Conditions,WindDirDegrees,DateUTC
12:53 AM,34.0,28.0,79,30.18,10.0,SSW,3.5,-,N/A,,Partly Cloudy,210,2012-10-11 04:53:00
1:53 AM,35.1,28.0,76,30.18,10.0,South,3.5,-,N/A,,Clear,180,2012-10-11 05:53:00
2:53 AM,33.1,28.0,82,30.18,10.0,Calm,Calm,-,N/A,,Partly Cloudy,0,2012-10-11 06:53:00
3:53 AM,33.1,28.0,82,30.17,10.0,Calm,Calm,-,N/A,,Partly Cloudy,0,2012-10-11 07:53:00
4:53 AM,34.0,28.9,82,30.16,10.0,Calm,Calm,-,N/A,,Clear,0,2012-10-11 08:53:00
5:53 AM,34.0,28.9,82,30.17,10.0,SSW,8.1,-,N/A,,Partly Cloudy,200,2012-10-11 09:53:00
6:53 AM,34.0,28.9,82,30.17,10.0,SSW,8.1,-,N/A,,Partly Cloudy,200,2012-10-11 10:53:00
7:53 AM,35.1,28.9,78,30.16,10.0,South,9.2,-,N/A,,Scattered Clouds,190,2012-10-11 11:53:00
8:53 AM,39.0,28.9,67,30.14,10.0,SSW,10.4,19.6,N/A,,Scattered Clouds,200,2012-10-11 12:53:00
9:53 AM,45.0,30.0,56,30.14,10.0,SSW,18.4,24.2,N/A,,Partly Cloudy,210,2012-10-11 13:53:00
10:53 AM,50.0,30.9,48,30.12,10.0,SW,20.7,28.8,N/A,,Partly Cloudy,220,2012-10-11 14:53:00
11:53 AM,54.0,30.9,41,30.10,10.0,SW,18.4,28.8,N/A,,Mostly Cloudy,230,2012-10-11 15:53:00
12:53 PM,55.9,30.9,39,30.07,10.0,WSW,25.3,34.5,N/A,,Mostly Cloudy,240,2012-10-11 16:53:00
1:53 PM,59.0,32.0,36,30.03,10.0,SW,23.0,39.1,N/A,,Partly Cloudy,230,2012-10-11 17:53:00
2:53 PM,61.0,32.0,34,30.03,10.0,SW,21.9,33.4,N/A,,Partly Cloudy,220,2012-10-11 18:53:00
3:53 PM,62.1,32.0,32,30.02,10.0,SW,21.9,33.4,N/A,,Scattered Clouds,230,2012-10-11 19:53:00
4:53 PM,61.0,30.9,32,30.03,10.0,West,23.0,34.5,N/A,,Mostly Cloudy,260,2012-10-11 20:53:00
5:53 PM,60.8,32.0,34,30.03,10.0,West,26.5,34.5,N/A,,Mostly Cloudy,260,2012-10-11 21:53:00
6:53 PM,57.9,34.0,41,30.06,10.0,West,13.8,31.1,N/A,,Mostly Cloudy,270,2012-10-11 22:53:00
7:22 PM,51.8,39.2,62,30.06,10.0,NNW,12.7,-,N/A,,Mostly Cloudy,330,2012-10-11 23:22:00
7:53 PM,51.1,39.0,63,30.10,10.0,NNW,6.9,-,N/A,,Overcast,330,2012-10-11 23:53:00
8:53 PM,48.2,39.2,71,30.12,10.0,North,12.7,19.6,N/A,Rain,Light Rain,350,2012-10-12 00:53:00
9:53 PM,45.0,39.9,82,30.17,10.0,NNW,9.2,-,0.00,Rain,Light Rain,330,2012-10-12 01:53:00
11:53 PM,43.0,37.9,82,30.21,10.0,North,3.5,-,0.01,Rain,Light Rain,350,2012-10-12 03:53:00